Location: Clermont
(50.2608°N, 4.3172°E)
Time: 21:30:01
(UTC+00:00)

USA 238 DEB - Pass Details

Date: 13 August 2020
Orbit: 1006 x 1206 km, 63.4° (Epoch: 19 September)

Event Time Altitude Azimuth Distance (km) Brightness Sun altitude
Rises 20:26:47 0° 211° (SSW) 3,739 6.5 -11.9°
Reaches altitude 10° 20:29:21 10° 210° (SSW) 2,805 5.8 -12.2°
Maximum altitude 20:35:54 71° 127° (SE) 1,107 3.6 -13.0°
Drops below altitude 10° 20:42:48 10° 46° (NE) 2,940 6.0 -13.8°
Sets 20:45:32 0° 44° (NE) 3,930 6.7 -14.1°
